Home   Weather   Dieppe   Past weeks

Flag for Canada Past Weather in Dieppe, New Brunswick, Canada — Yesterday and Last 2 Weeks

Now
30 °F

Snow flurries. Partly sunny.


Feels Like: 18 °F
Forecast: 25 / 31 °F
Wind: 17 mph from North

Location: Moncton

Current Time: Jan 22, 2017 at 12:39:02 pm

Latest Report: Jan 22, 2017 at 12:21 pm


Visibility: 15 mi

Pressure: 29.86 "Hg

Humidity: 75%

Dew Point: 23 °F

Location of DieppeLocation

Past Weather in Dieppe — Graph

°F

Dieppe Temperature Yesterday

Maximum temperature yesterday: 30 °F (at 1:00 pm)
Minimum temperature yesterday: 25 °F (at 12:00 am)
Average temperature yesterday: 28 °F

High & Low Weather Summary for the Past Weeks

 TemperatureHumidityPressure
High46 °F (Jan 11, 3:00 pm)100% (Jan 12, 12:00 pm)30.72 "Hg (Jan 12, 12:00 pm)
Low-8 °F (Jan 9, 6:00 am)37% (Jan 13, 3:00 pm)29.66 "Hg (Jan 21, 5:00 pm)
Average21 °F77%30.12 "Hg
* Reported Jan 7 11:00 am — Jan 22 11:27 am, Dieppe, Weather by CustomWeather, © 2017

Note: Actual official high and low records may vary slightly from our data, if they occured in-between our weather recording intervals... More about our weather records

Advertising

Dieppe Weather History for the Previous 24 Hours

Scroll right to see more
 ConditionsComfort  
Time TempWeatherWind HumidityBarometerVisibility
11:27 am
Sun, Jan 22
30 °FPartly sunny.17 mph75%29.86 "Hg15 mi
11:00 am30 °FSnow flurries. More clouds than sun.12 mph75%29.86 "Hg15 mi
10:16 am30 °FSnow flurries. Partly sunny.10 mph75%29.83 "Hg15 mi
10:00 am28 °FPartly sunny.8 mph86%29.83 "Hg15 mi
9:00 am28 °FPartly sunny.6 mph86%29.81 "Hg15 mi
8:00 am28 °FSnow flurries. Partly sunny.6 mph86%29.79 "Hg15 mi
7:41 am28 °FSnow flurries. Passing clouds.6 mph86%29.78 "Hg15 mi
7:00 am28 °FPassing clouds.8 mph86%29.78 "Hg15 mi
6:00 am28 °FOvercast.8 mph86%29.75 "Hg15 mi
5:00 am30 °FOvercast.7 mph80%29.72 "Hg15 mi
4:00 am30 °FOvercast.7 mph86%29.71 "Hg15 mi
3:00 am30 °FOvercast.7 mph86%29.69 "Hg13 mi
2:24 am30 °FOvercast.7 mph86%29.68 "Hg15 mi
2:00 am30 °FSnow flurries. Overcast.7 mph86%29.68 "Hg15 mi
1:40 am30 °FOvercast.7 mph86%29.67 "Hg15 mi
1:20 am30 °FSnow flurries. Overcast.8 mph86%29.68 "Hg10 mi
1:00 am30 °FMostly cloudy.7 mph86%29.68 "Hg15 mi
12:00 am30 °FOvercast.8 mph86%29.68 "Hg15 mi
11:00 pm
Sat, Jan 21
30 °FMostly cloudy.7 mph93%29.67 "Hg15 mi
10:00 pm30 °FOvercast.8 mph93%29.67 "Hg15 mi
9:00 pm30 °FMostly cloudy.7 mph93%29.66 "Hg15 mi
8:00 pm30 °FOvercast.6 mph86%29.67 "Hg15 mi
7:00 pm30 °FOvercast.6 mph86%29.67 "Hg15 mi
6:22 pm30 °FOvercast.9 mph86%29.68 "Hg15 mi
6:00 pm30 °FLow clouds.8 mph93%29.67 "Hg15 mi
5:52 pm30 °FOvercast.9 mph93%29.67 "Hg15 mi
5:35 pm30 °FSnow flurries. Low clouds.8 mph93%29.67 "Hg8 mi
5:12 pm30 °FLight snow. Ice fog.9 mph100%29.66 "Hg2 mi
5:00 pm30 °FLight snow. Ice fog.8 mph100%29.66 "Hg1 mi
4:41 pm30 °FSnow flurries. Ice fog.7 mph100%29.66 "Hg2 mi
4:09 pm30 °FSnow flurries. Ice fog.5 mph100%29.66 "Hg1 mi
3:47 pm30 °FSnow flurries. Ice fog.6 mph100%29.66 "Hg1 mi
3:37 pm30 °FLight snow. Ice fog.6 mph93%29.66 "Hg1 mi
3:07 pm30 °FLight snow. Ice fog.3 mph93%29.67 "Hg1 mi
2:29 pm30 °FSnow flurries. Ice fog.3 mph93%29.68 "Hg1 mi
2:00 pm30 °FSnow flurries. Ice fog.3 mph93%29.68 "Hg3 mi
1:45 pm30 °FLight snow. Mostly cloudy.5 mph86%29.69 "Hg4 mi
1:19 pm30 °FLight snow. Overcast.8 mph86%29.70 "Hg2 mi
1:00 pm30 °FOvercast.7 mph80%29.70 "Hg15 mi
12:00 pm28 °FMostly cloudy.5 mph86%29.75 "Hg15 mi
Weather by CustomWeather, © 2017

See weather overviewHow to use our weather pages